Lewiston, ID

8:57 AM PDT on August 25, 2016 (GMT -0700)
Lewiston-Nez Perce County

Weather History for KLWS - October, 2010

Change the Weather History Date:

Friday, October 29, 2010

  Actual Average Record
Temperature  
Mean Temperature 45 °F 47 °F  
Max Temperature 55 °F 56 °F 72 °F (1983)
Min Temperature 42 °F 38 °F 16 °F (1971)
Degree Days  
Heating Degree Days 20 18  
Month to date heating degree days 303 373  
Since 1 July heating degree days 386 487  
Cooling Degree Days 0 0  
Month to date cooling degree days 10 1  
Year to date cooling degree days 713 805  
Moisture  
Dew Point 43 °F    
Average Humidity 93    
Maximum Humidity 100    
Minimum Humidity 86    
Precipitation  
Precipitation 0.06 in 0.04 in 1.01 in (1950)
Month to date precipitation 0.87 0.88  
Year to date precipitation 11.33 10.08  
Snow  
Snow 0.00 in 0.00 in T in (1984)
Month to date snowfall 0.0 0.0  
Since 1 July snowfall 0.0 0.0  
Since 1 September snowfall 0.0 0.0  
Snow Depth 0.00 in    
Sea Level Pressure  
Sea Level Pressure 30.06 in    
Wind  
Wind Speed 1 mph (NNE)    
Max Wind Speed 8 mph    
Max Gust Speed 8 mph    
Visibility 6 miles    
Events Rain    
T = Trace of Precipitation, MM = Missing Value Source: NWS Daily Summary

Daily Weather History Graph

Daily Weather History Graph

Search for Another Location

Airport or City:

Trip Planner

Search our weather history database for the weather conditions in past years. The results will help you decide how hot, cold, wet, or windy it might be!

Date:

Astronomy

Oct. 29, 2010 Rise Set
Actual Time 7:25 AM PDT 5:37 PM PDT
Civil Twilight 6:53 AM PDT 6:08 PM PDT
Nautical Twilight 6:18 AM PDT 6:44 PM PDT
Astronomical Twilight 5:43 AM PDT 7:19 PM PDT
Moon 11:20 PM PDT (10/29) 1:34 PM PDT (10/29)
Length of Visible Light 11h 14m
Length of Day
10h 12m
Waning Gibbous, 58% of the Moon is Illuminated
Oct 29
Waning Gibbous
Oct 30
Last Quarter
Nov 5
New
Nov 13
First Quarter
Nov 21
Full

Hourly Weather History & Observations

Time (PDT) Temp. Windchill Dew Point Humidity Pressure Visibility Wind Dir Wind Speed Gust Speed Precip Events Conditions
12:56 AM 43.0 °F 40.3 °F 39.9 °F 89% 30.02 in 10.0 mi ESE 4.6 mph - N/A   Clear
1:56 AM 43.0 °F 40.3 °F 39.9 °F 89% 30.02 in 10.0 mi West 4.6 mph - N/A   Clear
2:56 AM 44.1 °F - 41.0 °F 89% 30.02 in 10.0 mi Calm Calm - N/A   Clear
3:56 AM 43.0 °F - 41.0 °F 93% 30.02 in 10.0 mi Calm Calm - N/A   Overcast
4:56 AM 42.1 °F - 41.0 °F 96% 30.04 in 4.0 mi Calm Calm - N/A   Overcast
5:56 AM 43.0 °F 41.3 °F 41.0 °F 93% 30.06 in 9.0 mi SE 3.5 mph - N/A   Overcast
6:56 AM 43.0 °F 41.3 °F 41.0 °F 93% 30.07 in 10.0 mi SE 3.5 mph - N/A   Overcast
7:56 AM 43.0 °F 41.3 °F 41.0 °F 93% 30.09 in 8.0 mi North 3.5 mph - 0.00 in Rain Light Rain
8:56 AM 44.1 °F - 42.1 °F 93% 30.10 in 6.0 mi Calm Calm - 0.01 in Rain Light Rain
9:56 AM 45.0 °F - 42.1 °F 90% 30.10 in 9.0 mi Calm Calm - 0.01 in Rain Light Rain
10:46 AM 44.6 °F 43.1 °F 42.8 °F 93% 30.09 in 3.0 mi NNW 3.5 mph - 0.01 in Rain Light Rain
10:48 AM 44.6 °F 43.1 °F 42.8 °F 93% 30.09 in 2.5 mi NNW 3.5 mph - 0.01 in Rain Light Rain
10:54 AM 44.6 °F 43.1 °F 42.8 °F 93% 30.08 in 1.2 mi NNW 3.5 mph - 0.02 in Rain Light Rain
10:56 AM 45.0 °F 43.5 °F 43.0 °F 93% 30.11 in 1.2 mi NNW 3.5 mph - 0.02 in Rain Light Rain
11:04 AM 44.6 °F 43.1 °F 42.8 °F 93% 30.09 in 2.0 mi NNW 3.5 mph - 0.00 in Rain Light Rain
11:56 AM 45.0 °F - 44.1 °F 97% 30.12 in 2.0 mi Calm Calm - 0.01 in Rain Light Rain
12:03 PM 44.6 °F - 44.6 °F 100% 30.09 in 5.0 mi Calm Calm - 0.00 in Rain Light Rain
12:56 PM - - - N/A% 30.08 in 5.0 mi Calm Calm - 0.01 in Rain Light Rain
1:56 PM - - - N/A% 30.08 in 3.0 mi Calm Calm - 0.00 in   Mostly Cloudy
2:56 PM - - - N/A% 30.07 in 5.0 mi Calm Calm - N/A   Haze
3:33 PM - - - N/A% 30.07 in 7.0 mi West 3.5 mph - N/A   Overcast
3:56 PM 48.0 °F - 45.0 °F 89% 30.09 in 3.0 mi WNW 3.5 mph - N/A   Overcast
4:56 PM 48.0 °F - 45.0 °F 89% 30.09 in 5.0 mi Calm Calm - N/A   Overcast
5:56 PM 48.0 °F - 45.0 °F 89% 30.08 in 7.0 mi Calm Calm - N/A   Overcast
6:56 PM 46.9 °F - 45.0 °F 93% 30.08 in 6.0 mi Calm Calm - N/A   Overcast
7:45 PM 46.4 °F - 44.6 °F 93% 30.05 in 6.0 mi Calm Calm - N/A   Mostly Cloudy
7:56 PM 46.0 °F - 44.1 °F 93% 30.08 in 5.0 mi Calm Calm - N/A   Scattered Clouds
8:56 PM 46.0 °F - 44.1 °F 93% 30.06 in 5.0 mi Calm Calm - N/A   Mostly Cloudy
9:09 PM 44.6 °F 42.2 °F 42.8 °F 93% 30.04 in 6.0 mi SE 4.6 mph - N/A   Mostly Cloudy
9:24 PM 44.6 °F 43.1 °F 42.8 °F 93% 30.04 in 4.0 mi SSE 3.5 mph - N/A   Mostly Cloudy
9:56 PM 44.1 °F 42.5 °F 43.0 °F 96% 30.05 in 6.0 mi ESE 3.5 mph - N/A   Mostly Cloudy
10:14 PM 44.6 °F 43.1 °F 42.8 °F 93% 30.03 in 7.0 mi East 3.5 mph - N/A   Mostly Cloudy
10:29 PM 44.6 °F - 42.8 °F 93% 30.03 in 7.0 mi Calm Calm - N/A   Scattered Clouds
10:56 PM 44.1 °F - 42.1 °F 93% 30.05 in 8.0 mi Calm Calm - N/A   Clear
11:04 PM 44.6 °F - 42.8 °F 93% 30.02 in 9.0 mi Calm Calm - N/A   Partly Cloudy
11:53 PM 42.8 °F - 41.0 °F 93% 30.01 in 7.0 mi Calm Calm - N/A   Mostly Cloudy
11:56 PM 43.0 °F - 42.1 °F 97% 30.03 in 7.0 mi Calm Calm - N/A   Mostly Cloudy